Location: Kalberh�ni
(46.4610°N, 7.2453°E)
Time: 18:15:59
(UTC+00:00)

Meteor 2-1 Rocket - Pass Details

Date: 26 October 2021
Orbit: 830 x 906 km, 81.3° (Epoch: 28 November)

Event Time Altitude Azimuth Distance (km) Brightness Sun altitude
Rises 19:21:38 0° 197° (SSW) 3,419 7.4 -30.8°
Reaches altitude 10° 19:24:05 10° 200° (SSW) 2,476 6.7 -31.2°
Enters shadow 19:24:40 13° 201° (SSW) 2,258 6.4 -31.3°
Exits shadow 19:34:35 13° 5° (N) 2,223 6.5 -33.0°
Drops below altitude 10° 19:35:12 10° 6° (N) 2,456 6.7 -33.1°
Sets 19:37:38 0° 9° (N) 3,390 7.4 -33.5°
